EW6308 Weather Reports


time (UTC)temp
C
wind
direction
speed
KPH
gust
KPH
rain 1hr
cm
rain 24hr
cm
rain mn
cm
humidity
%
barometer
mb
20260509173746 31 189 3.2 9.7 0.00 0.00 0.00 45 1012.7
20260509173241 31 291 4.8 6.4 0.00 0.00 0.00 45 1012.8
20260509172738 31 195 0.0 3.2 0.00 0.00 0.00 47 1012.8
20260509172235 30 7 3.2 9.7 0.00 0.00 0.00 49 1013.0
20260509171730 30 263 3.2 3.2 0.00 0.00 0.00 49 1012.9
20260509171226 30 329 4.8 6.4 0.00 0.00 0.00 51 1012.8
20260509170724 30 213 0.0 6.4 0.00 0.00 0.00 49 1013.0
20260509170219 30 186 0.0 1.6 0.00 0.00 0.00 54 1013.2
20260509165718 30 318 6.4 6.4 0.00 0.00 0.00 51 1013.1
20260509165213 30 114 0.0 3.2 0.00 0.00 0.00 55 1013.1
20260509164709 28 119 1.6 4.8 0.00 0.00 0.00 59 1013.1
20260509164205 28 202 6.4 9.7 0.00 0.00 0.00 58 1013.2
20260509163703 29 168 3.2 3.2 0.00 0.00 0.00 55 1013.3
20260509163159 29 331 4.8 6.4 0.00 0.00 0.00 56 1013.2
20260509162657 29 332 4.8 9.7 0.00 0.00 0.00 57 1013.2
20260509162152 29 329 4.8 9.7 0.00 0.00 0.00 58 1013.3
20260509161648 29 251 1.6 4.8 0.00 0.00 0.00 60 1013.0
20260509161144 28 264 1.6 3.2 0.00 0.00 0.00 62 1013.0
20260509160640 28 349 3.2 4.8 0.00 0.00 0.00 63 1013.1
20260509160135 28 287 4.8 6.4 0.00 0.00 0.00 63 1013.2
20260509155632 28 280 6.4 6.4 0.00 0.00 0.00 64 1013.3
20260509155128 27 97 1.6 3.2 0.00 0.00 0.00 66 1013.4
20260509154624 27 13 4.8 6.4 0.00 0.00 0.00 68 1013.2
20260509154121 27 322 3.2 4.8 0.00 0.00 0.00 69 1013.3
20260509153618 27 329 3.2 3.2 0.00 0.00 0.00 71 1013.2
20260509153115 27 191 0.0 3.2 0.00 0.00 0.00 71 1013.1
20260509152611 26 318 4.8 6.4 0.00 0.00 0.00 73 1013.3
20260509152108 26 17 9.7 14.5 0.00 0.00 0.00 73 1013.2
20260509151604 26 347 1.6 4.8 0.00 0.00 0.00 75 1013.2
20260509151102 26 318 4.8 12.9 0.00 0.00 0.00 74 1013.0
20260509150559 25 345 3.2 9.7 0.00 0.00 0.00 77 1013.2
20260509150058 25 307 4.8 9.7 0.00 0.00 0.00 76 1013.0
20260509145553 25 351 4.8 11.3 0.00 0.00 0.00 76 1013.1
20260509145049 26 338 8.0 14.5 0.00 0.00 0.00 75 1013.0
20260509144546 26 343 9.7 12.9 0.00 0.00 0.00 75 1013.1
20260509144043 25 340 6.4 6.4 0.00 0.00 0.00 75 1012.9
20260509143540 26 343 6.4 6.4 0.00 0.00 0.00 76 1013.0
20260509143038 25 284 3.2 4.8 0.00 0.00 0.00 76 1012.7
20260509142533 25 225 3.2 9.7 0.00 0.00 0.00 76 1012.9
20260509142029 25 342 1.6 6.4 0.00 0.00 0.00 77 1012.9
20260509141525 25 283 3.2 4.8 0.00 0.00 0.00 78 1012.8
20260509141022 25 268 1.6 4.8 0.00 0.00 0.00 80 1013.1
20260509140519 24 350 1.6 3.2 0.00 0.00 0.00 81 1012.9
20260509140017 24 337 6.4 12.9 0.00 0.00 0.00 83 1013.0
20260509135513 24 357 12.9 16.1 0.00 0.00 0.00 81 1013.1
20260509135011 25 339 6.4 11.3 0.00 0.00 0.00 78 1013.0
20260509134508 25 195 4.8 11.3 0.00 0.00 0.00 79 1013.0
20260509134006 25 329 1.6 3.2 0.00 0.00 0.00 81 1012.7
20260509133502 23 321 3.2 4.8 0.00 0.00 0.00 84 1012.8
20260509133000 23 207 3.2 4.8 0.00 0.00 0.00 87 1012.6
20260509132458 23 358 6.4 6.4 0.00 0.00 0.00 89 1012.4
20260509131955 22 251 1.6 4.8 0.00 0.00 0.00 92 1012.5
20260509131452 22 271 1.6 3.2 0.00 0.00 0.00 94 1012.2
20260509130948 22 178 4.8 6.4 0.00 0.00 0.00 95 1012.0
20260509130444 22 334 6.4 9.7 0.00 0.00 0.00 96 1012.4
20260509125941 21 255 1.6 4.8 0.00 0.00 0.00 96 1012.1
20260509125438 21 337 6.4 6.4 0.00 0.00 0.00 96 1012.3
20260509124934 21 292 1.6 9.7 0.00 0.00 0.00 96 1012.2
20260509124431 21 264 1.6 3.2 0.00 0.00 0.00 96 1012.1
20260509123928 21 246 0.0 3.2 0.00 0.00 0.00 96 1011.9
20260509123426 21 281 3.2 3.2 0.00 0.00 0.00 96 1011.8
20260509122921 21 214 3.2 9.7 0.00 0.00 0.00 96 1011.0
20260509122419 21 208 11.3 16.1 0.00 0.00 0.00 96 1010.7
20260509121915 21 188 4.8 12.9 0.00 0.00 0.00 96 1010.6
20260509121413 21 165 1.6 11.3 0.00 0.00 0.00 96 1010.3
20260509120911 21 167 6.4 12.9 0.00 0.00 0.00 96 1010.3
20260509120408 21 211 14.5 16.1 0.00 0.00 0.00 96 1010.6
20260509115906 21 175 14.5 17.7 0.00 0.00 0.00 96 1010.6
20260509115403 21 219 3.2 6.4 0.00 0.00 0.00 96 1010.7
20260509114901 21 197 6.4 11.3 0.00 0.00 0.00 96 1010.6
20260509114359 21 191 9.7 12.9 0.00 0.00 0.00 96 1010.7
20260509113858 21 169 9.7 17.7 0.00 0.00 0.00 96 1010.9
20260509113355 21 189 11.3 20.9 0.00 0.00 0.00 96 1010.9
20260509112851 21 205 11.3 17.7 0.00 0.00 0.00 96 1011.2
20260509112348 21 196 12.9 16.1 0.00 0.00 0.00 96 1011.2
20260509111846 21 179 9.7 17.7 0.00 0.00 0.00 96 1011.1
20260509111342 21 182 12.9 17.7 0.00 0.00 0.00 95 1011.2
20260509110840 21 223 9.7 16.1 0.00 0.00 0.00 95 1011.3
20260509110336 21 186 14.5 16.1 0.00 0.00 0.00 95 1011.6
20260509105835 21 192 8.0 12.9 0.00 0.00 0.00 95 1011.9
20260509105332 21 247 6.4 11.3 0.00 0.00 0.00 95 1012.0
20260509104829 21 206 9.7 14.5 0.00 0.00 0.00 95 1012.0
20260509104325 21 187 8.0 11.3 0.00 0.00 0.00 95 1012.0
20260509103823 21 227 6.4 9.7 0.00 0.00 0.00 95 1012.2
20260509103320 21 231 4.8 11.3 0.00 0.00 0.00 95 1012.3
20260509102820 21 211 1.6 4.8 0.00 0.00 0.00 95 1012.3
20260509102316 21 223 3.2 9.7 0.00 0.00 0.00 95 1012.4
20260509101812 21 185 4.8 6.4 0.00 0.00 0.00 95 1012.3
20260509101308 21 213 1.6 3.2 0.00 0.00 0.00 95 1012.4
20260509100806 21 211 3.2 4.8 0.00 0.00 0.00 95 1012.5
20260509100303 21 219 0.0 1.6 0.00 0.00 0.00 95 1012.5
20260509095759 21 217 3.2 4.8 0.00 0.00 0.00 95 1012.6
20260509095257 21 196 1.6 1.6 0.00 0.00 0.00 95 1012.6
20260509094754 21 235 1.6 1.6 0.00 0.00 0.00 95 1012.8
20260509094250 21 224 1.6 1.6 0.00 0.00 0.00 95 1012.8
20260509093748 21 245 0.0 0.0 0.00 0.00 0.00 95 1012.8
20260509093245 21 226 0.0 1.6 0.00 0.00 0.00 95 1012.8
20260509092744 21 212 0.0 0.0 0.00 0.00 0.00 95 1012.8
20260509092241 21 219 0.0 1.6 0.00 0.00 0.00 95 1012.8
20260509091739 21 235 0.0 0.0 0.00 0.00 0.00 95 1012.8
20260509091235 21 242 0.0 1.6 0.00 0.00 0.00 95 1012.9
20260509090733 21 224 1.6 3.2 0.00 0.00 0.00 95 1012.9
20260509090229 21 213 0.0 1.6 0.00 0.00 0.00 95 1012.9
20260509085728 21 175 0.0 0.0 0.00 0.00 0.00 95 1013.0
20260509085225 21 300 0.0 0.0 0.00 0.00 0.00 95 1013.0
20260509084721 21 297 0.0 1.6 0.00 0.00 0.00 95 1013.1
20260509084218 21 196 1.6 1.6 0.00 0.00 0.00 95 1013.1
20260509083716 21 314 1.6 3.2 0.00 0.00 0.00 95 1013.2
20260509083212 21 275 0.0 1.6 0.00 0.00 0.00 95 1013.4
20260509082709 21 340 3.2 4.8 0.00 0.00 0.00 95 1013.6
20260509082206 21 346 4.8 4.8 0.00 0.00 0.00 95 1013.6
20260509081702 21 1 3.2 6.4 0.00 0.00 0.00 95 1013.6
20260509081159 21 3 3.2 6.4 0.00 0.00 0.00 95 1013.6
20260509080658 21 336 3.2 3.2 0.00 0.00 0.00 95 1013.6
20260509080155 21 272 0.0 1.6 0.00 0.00 0.00 95 1013.4
20260509075653 21 257 1.6 3.2 0.00 0.00 0.00 95 1013.5
20260509075151 21 290 1.6 1.6 0.00 0.00 0.00 95 1013.2
20260509074647 21 240 0.0 1.6 0.00 0.00 0.00 95 1012.9
20260509074144 21 90 4.8 4.8 0.00 0.00 0.00 95 1013.1
20260509073641 21 219 0.0 0.0 0.00 0.00 0.00 95 1013.0
20260509073137 21 173 0.0 0.0 0.00 0.00 0.00 95 1013.1
20260509072634 21 246 0.0 0.0 0.00 0.00 0.00 95 1013.1
20260509072131 21 254 0.0 0.0 0.00 0.00 0.00 95 1013.1
20260509071627 21 230 0.0 0.0 0.00 0.00 0.00 95 1013.0
20260509071125 21 180 0.0 1.6 0.00 0.00 0.00 95 1012.9
20260509070622 21 211 1.6 6.4 0.00 0.00 0.00 95 1013.1
20260509070118 21 198 3.2 3.2 0.00 0.00 0.00 95 1013.1
20260509065614 21 234 0.0 0.0 0.00 0.00 0.00 95 1013.3
20260509065110 21 233 0.0 0.0 0.00 0.00 0.00 95 1013.0
20260509064607 21 286 0.0 1.6 0.00 0.00 0.00 95 1013.1
20260509064106 21 243 0.0 1.6 0.00 0.00 0.00 95 1013.3
20260509063602 21 250 0.0 0.0 0.00 0.00 0.00 95 1013.4
20260509063059 21 355 3.2 4.8 0.00 0.00 0.00 95 1013.3
20260509062555 21 335 1.6 3.2 0.00 0.00 0.00 95 1012.9
20260509062053 21 353 3.2 3.2 0.00 0.00 0.00 95 1012.8
20260509061550 20 206 0.0 0.0 0.00 0.00 0.00 95 1012.8
20260509061047 20 206 0.0 0.0 0.00 0.00 0.00 95 1012.6
20260509060545 20 206 0.0 0.0 0.00 0.00 0.00 94 1012.4
20260509060040 20 205 0.0 0.0 0.00 0.00 0.00 94 1012.3
20260509055536 20 203 0.0 0.0 0.00 0.00 0.00 94 1012.3
20260509055032 20 216 0.0 0.0 0.00 0.00 0.00 94 1012.4
20260509054528 20 217 0.0 0.0 0.00 0.00 0.00 94 1012.3
20260509054027 21 217 0.0 0.0 0.00 0.00 0.00 94 1012.2
20260509053525 21 210 0.0 0.0 0.00 0.00 0.00 94 1012.3
20260509053022 21 215 0.0 0.0 0.00 0.00 0.00 94 1012.2
20260509052519 21 216 0.0 0.0 0.00 0.00 0.00 93 1012.3
20260509052017 21 220 0.0 0.0 0.00 0.00 0.00 94 1012.6
20260509051515 21 221 0.0 0.0 0.00 0.00 0.00 94 1012.6
20260509051012 21 219 0.0 0.0 0.00 0.00 0.00 94 1012.6
20260509050508 21 275 0.0 0.0 0.00 0.00 0.00 94 1012.8
20260509050005 21 245 0.0 0.0 0.00 0.00 0.00 94 1012.8
20260509045502 21 232 0.0 0.0 0.00 0.00 0.00 93 1012.9
20260509044959 21 232 0.0 0.0 0.00 0.00 0.00 93 1012.8
20260509044457 21 232 0.0 0.0 0.00 0.00 0.00 93 1012.7
20260509043954 21 232 0.0 0.0 0.00 0.00 0.00 93 1012.8
20260509043449 21 266 0.0 0.0 0.00 0.00 0.00 93 1012.9
20260509042945 21 267 0.0 0.0 0.00 0.00 0.00 93 1012.8
20260509042442 21 267 0.0 0.0 0.00 0.00 0.00 93 1012.8
20260509041938 21 267 0.0 0.0 0.00 0.00 0.00 93 1012.7
20260509041435 21 267 0.0 0.0 0.00 0.00 0.00 93 1012.6
20260509040934 21 267 0.0 0.0 0.00 0.00 0.00 93 1012.7
20260509040431 21 284 1.6 1.6 0.00 0.00 0.00 93 1012.7
20260509035928 21 274 1.6 1.6 0.00 0.00 0.00 93 1012.5
20260509035425 21 270 0.0 0.0 0.00 0.00 0.00 93 1012.3
20260509034921 21 270 0.0 0.0 0.00 0.00 0.00 92 1012.2
20260509034419 21 276 0.0 0.0 0.00 0.00 0.00 92 1012.0
20260509033916 21 254 0.0 0.0 0.00 0.00 0.00 92 1012.0
20260509033413 21 227 0.0 0.0 0.00 0.00 0.00 92 1011.8
20260509032909 21 227 0.0 0.0 0.00 0.00 0.00 91 1011.8
20260509032407 21 228 0.0 0.0 0.00 0.00 0.00 91 1011.8
20260509031905 21 229 0.0 0.0 0.00 0.00 0.00 91 1011.6
20260509031402 21 228 0.0 0.0 0.00 0.00 0.00 91 1011.6
20260509030859 21 223 0.0 0.0 0.00 0.00 0.00 90 1011.4
20260509030357 21 223 1.6 1.6 0.00 0.00 0.00 90 1011.6
20260509025854 21 236 0.0 0.0 0.00 0.00 0.00 90 1011.4
20260509025349 22 261 0.0 0.0 0.00 0.00 0.00 89 1011.3
20260509024845 22 262 0.0 0.0 0.00 0.00 0.00 88 1011.4
20260509024341 22 263 0.0 1.6 0.00 0.00 0.00 88 1011.3
20260509023838 22 246 0.0 0.0 0.00 0.00 0.00 87 1011.1
20260509023336 22 178 0.0 1.6 0.00 0.00 0.00 87 1011.2
20260509022832 22 205 1.6 3.2 0.00 0.00 0.00 87 1010.9
20260509022330 22 194 3.2 3.2 0.00 0.00 0.00 86 1010.7
20260509021826 22 205 1.6 3.2 0.00 0.00 0.00 86 1011.0
20260509021323 22 197 3.2 4.8 0.00 0.00 0.00 86 1011.0
20260509020821 22 185 1.6 3.2 0.00 0.00 0.00 86 1010.8
20260509020319 22 184 1.6 3.2 0.00 0.00 0.00 85 1010.7
20260509015816 22 176 1.6 3.2 0.00 0.00 0.00 85 1010.6
20260509015314 22 199 1.6 3.2 0.00 0.00 0.00 85 1010.5
20260509014811 23 205 1.6 1.6 0.00 0.00 0.00 85 1010.8
20260509014308 23 203 0.0 1.6 0.00 0.00 0.00 85 1010.7
20260509013804 23 204 0.0 0.0 0.00 0.00 0.00 85 1010.8
20260509013300 23 204 0.0 1.6 0.00 0.00 0.00 84 1010.8
20260509012756 23 206 0.0 0.0 0.00 0.00 0.00 84 1010.9
20260509012253 23 206 0.0 0.0 0.00 0.00 0.00 84 1010.9
20260509011751 23 218 0.0 0.0 0.00 0.00 0.00 84 1010.9
20260509011248 23 221 0.0 1.6 0.00 0.00 0.00 84 1010.9
20260509010746 23 227 0.0 1.6 0.00 0.00 0.00 83 1010.8
20260509010243 23 223 0.0 1.6 0.00 0.00 0.00 83 1010.9
20260509005741 23 209 3.2 4.8 0.00 0.00 0.00 83 1010.9
20260509005238 23 199 4.8 6.4 0.00 0.00 0.00 83 1011.0
20260509004737 23 192 3.2 3.2 0.00 0.00 0.00 82 1011.0
20260509004235 23 219 1.6 3.2 0.00 0.00 0.00 82 1010.8
20260509003733 23 220 0.0 4.8 0.00 0.00 0.00 82 1011.1
20260509003230 23 209 3.2 4.8 0.00 0.00 0.00 82 1011.0
20260509002727 23 182 3.2 4.8 0.00 0.00 0.00 82 1010.8
20260509002225 23 206 1.6 4.8 0.00 0.00 0.00 81 1011.0
20260509001722 23 167 1.6 6.4 0.00 0.00 0.00 81 1010.8
20260509001218 23 170 3.2 6.4 0.00 0.00 0.00 81 1010.8
20260509000716 23 200 3.2 9.7 0.00 0.00 0.00 81 1010.6
20260509000213 23 201 3.2 9.7 0.00 0.00 0.00 80 1010.9
20260508235710 23 209 3.2 4.8 0.00 0.00 0.00 80 1011.0
20260508235206 23 229 3.2 11.3 0.00 0.00 0.00 80 1010.9
20260508234704 23 144 6.4 11.3 0.00 0.00 0.00 80 1011.0
20260508234200 23 227 3.2 6.4 0.00 0.00 0.00 80 1011.0
20260508233700 23 205 4.8 6.4 0.00 0.00 0.00 80 1010.8
20260508233157 23 234 1.6 6.4 0.00 0.00 0.00 80 1010.6
20260508232654 24 214 6.4 11.3 0.00 0.00 0.00 79 1010.9
20260508232150 24 168 1.6 4.8 0.00 0.00 0.00 79 1010.8
20260508231649 24 177 6.4 9.7 0.00 0.00 0.00 78 1010.8
20260508231145 23 233 0.0 6.4 0.00 0.00 0.00 79 1010.9
20260508230642 23 146 4.8 12.9 0.00 0.00 0.00 79 1011.0
20260508230138 24 267 3.2 6.4 0.00 0.00 0.00 79 1011.0
20260508225636 24 153 3.2 4.8 0.00 0.00 0.00 78 1011.1
20260508225132 24 81 3.2 11.3 0.00 0.00 0.00 77 1011.1
20260508224630 24 120 3.2 3.2 0.00 0.00 0.00 77 1011.1
20260508224128 24 70 3.2 6.4 0.00 0.00 0.00 77 1011.2
20260508223625 24 183 1.6 6.4 0.00 0.00 0.00 77 1011.2
20260508223122 24 201 3.2 4.8 0.00 0.00 0.00 77 1011.0
20260508222620 24 229 1.6 9.7 0.00 0.00 0.00 77 1011.1
20260508222117 25 205 4.8 6.4 0.00 0.00 0.00 76 1011.3
20260508221613 24 221 3.2 9.7 0.00 0.00 0.00 77 1011.2
20260508221108 24 241 0.0 4.8 0.00 0.00 0.00 77 1011.3
20260508220605 24 80 4.8 9.7 0.00 0.00 0.00 77 1011.5
20260508215559 23 169 3.2 6.4 0.00 0.00 0.00 77 1011.6
20260508215055 23 234 3.2 9.7 0.00 0.00 0.00 78 1011.9
20260508214553 24 174 3.2 6.4 0.00 0.00 0.00 77 1011.8
20260508214049 24 179 1.6 9.7 0.00 0.00 0.00 77 1011.8
20260508213546 23 192 3.2 6.4 0.00 0.00 0.00 77 1011.8
20260508213042 23 215 0.0 3.2 0.00 0.00 0.00 79 1012.0
20260508212539 23 60 3.2 4.8 0.00 0.00 0.00 78 1012.1
20260508212035 23 184 3.2 9.7 0.00 0.00 0.00 77 1012.3
20260508211531 22 226 1.6 4.8 0.00 0.00 0.00 79 1012.4
20260508211027 22 181 3.2 4.8 0.00 0.00 0.00 79 1012.5
20260508210524 22 206 0.0 3.2 0.00 0.00 0.00 79 1012.5
20260508210022 22 244 0.0 1.6 0.00 0.00 0.00 79 1012.7
20260508205518 22 264 0.0 0.0 0.00 0.00 0.00 79 1012.8
20260508205014 22 83 3.2 6.4 0.00 0.00 0.00 79 1012.9
20260508204512 22 209 3.2 4.8 0.00 0.00 0.00 79 1012.8
20260508204007 23 210 4.8 6.4 0.00 0.00 0.00 77 1012.8
20260508203503 23 281 0.0 4.8 0.00 0.00 0.00 76 1012.8
20260508202959 23 228 4.8 4.8 0.00 0.00 0.00 75 1012.9
20260508202456 23 222 0.0 3.2 0.00 0.00 0.00 77 1013.0
20260508201953 23 216 6.4 6.4 0.00 0.00 0.00 76 1013.0
20260508201450 22 122 1.6 3.2 0.00 0.00 0.00 77 1013.0
20260508200947 23 102 1.6 3.2 0.00 0.00 0.00 76 1013.1
20260508200444 22 204 3.2 4.8 0.00 0.00 0.00 77 1013.1
20260508195938 22 178 1.6 4.8 0.00 0.00 0.00 76 1013.1
20260508195436 22 155 1.6 4.8 0.00 0.00 0.00 76 1013.2
20260508194932 22 201 1.6 6.4 0.00 0.00 0.00 78 1013.1
20260508194429 22 209 6.4 6.4 0.00 0.00 0.00 77 1013.3
20260508193926 22 209 0.0 4.8 0.00 0.00 0.00 78 1013.5
20260508193424 22 83 9.7 11.3 0.00 0.00 0.00 74 1013.4
20260508192919 22 246 0.0 1.6 0.00 0.00 0.00 77 1013.4
20260508192417 21 230 0.0 4.8 0.00 0.00 0.00 79 1013.4
20260508191914 21 117 6.4 9.7 0.00 0.00 0.00 79 1013.7
20260508191411 21 105 3.2 4.8 0.00 0.00 0.00 77 1013.7
20260508190908 21 205 1.6 6.4 0.00 0.00 0.00 78 1013.7
20260508190405 21 68 3.2 9.7 0.00 0.00 0.00 80 1013.9
20260508185901 21 84 3.2 6.4 0.00 0.00 0.00 78 1013.8
20260508185359 21 217 1.6 4.8 0.00 0.00 0.00 78 1013.8
20260508184855 21 137 0.0 1.6 0.00 0.00 0.00 81 1013.9
20260508184353 21 219 0.0 1.6 0.00 0.00 0.00 81 1014.1
20260508183849 20 245 0.0 1.6 0.00 0.00 0.00 81 1014.2
20260508183346 20 105 3.2 3.2 0.00 0.00 0.00 81 1014.2
20260508182842 20 179 0.0 1.6 0.00 0.00 0.00 83 1014.3
20260508182339 20 167 1.6 1.6 0.00 0.00 0.00 82 1014.3
20260508181834 20 137 0.0 3.2 0.00 0.00 0.00 83 1014.6
20260508181331 20 71 1.6 4.8 0.00 0.00 0.00 82 1014.5
20260508180828 20 68 1.6 3.2 0.00 0.00 0.00 83 1014.6
20260508180325 20 68 3.2 4.8 0.00 0.00 0.00 82 1014.9
20260508175821 20 36 1.6 3.2 0.00 0.00 0.00 82 1014.9
20260508175318 20 93 0.0 3.2 0.00 0.00 0.00 81 1014.9
20260508174816 20 39 1.6 1.6 0.00 0.00 0.00 81 1015.0
20260508174313 20 237 0.0 0.0 0.00 0.00 0.00 81 1015.1